Flag for Chile Weather past 2 weeks in Temuco, Chile

Now
57 °F

Passing clouds.


Feels Like: 56 °F
Forecast: N/A
Wind: 7 mph from Southwest

Location: Temuco Airport


UV Index: N/A

Visibility: N/A


Pressure: 30.15 "Hg

Humidity: 44%

Dew point: 36 °F

Location of TemucoLocation

Historic Weather in Temuco

°F

Temuco temperature yesterday

Maximum temperature yesterday: 59 °F (at 2:00 PM)
Minimum temperature yesterday: 41 °F (at 10:00 PM)
Average temperature yesterday: 51 °F

Past Weeks' High & Low Weather Summary

 TemperatureHumidityPressure
High72 °F (Apr 2, 5:00 PM)100% (Apr 3, 1:00 AM)30.39 "Hg (Apr 3, 1:00 AM)
Low32 °F (Apr 13, 6:00 AM)42% (Apr 17, 5:00 PM)29.92 "Hg (Apr 6, 5:00 AM)
Average52 °F85%30.11 "Hg
* Reported Apr 2 5:00 PM — Apr 17 5:00 PM, Temuco, Weather by CustomWeather, © 2014

Note: Actual official high and low records may vary slightly from our data, if they occured in-between our weather recording intervals... More about our weather records

Advertising

Historic Weather Conditions — Data for Previous 24 hours

 ConditionsComfort  
Time TempWeatherWind HumidityBarometerVisibility
5:00 PM
Apr 17
59 °FSunny.5 mph42%30.15 "Hg10 mi
4:00 PM59 °FPassing clouds.6 mph45%30.18 "HgN/A
3:00 PM57 °FPassing clouds.5 mph59%30.21 "HgN/A
2:00 PM57 °FScattered clouds.8 mph51%30.24 "HgN/A
1:00 PM54 °FPassing clouds.5 mph72%30.24 "HgN/A
12:00 PM50 °FSunny.3 mph76%30.24 "Hg10 mi
11:00 AM46 °FSunny.1 mph82%30.24 "Hg5 mi
10:00 AM43 °FSunny.No wind93%30.24 "Hg4 mi
9:00 AM32 °FIce fog.1 mph100%30.24 "Hg3 mi
8:00 AM36 °FSunny.2 mph100%30.24 "Hg10 mi
7:00 AM36 °FClear.No wind100%30.24 "Hg10 mi
6:00 AM39 °FPassing clouds.6 mph100%30.24 "HgN/A
5:00 AM39 °FPassing clouds.5 mph93%30.24 "HgN/A
4:00 AM41 °FPassing clouds.No wind87%30.24 "HgN/A
3:00 AM43 °FClear.8 mph87%30.24 "Hg10 mi
2:00 AM43 °FPassing clouds.6 mph93%30.24 "HgN/A
1:00 AM45 °FPassing clouds.1 mph87%30.27 "HgN/A
12:00 AM46 °FPassing clouds.No wind87%30.24 "HgN/A
11:00 PM
Apr 16
46 °FClear.1 mph82%30.24 "Hg5 mi
10:00 PM41 °FClear.3 mph93%30.24 "Hg5 mi
9:00 PM45 °FClear.2 mph81%30.21 "Hg10 mi
8:00 PM50 °FPassing clouds.3 mph67%30.18 "HgN/A
7:00 PM54 °FPassing clouds.7 mph58%30.18 "HgN/A
6:00 PM57 °FScattered clouds.14 mph48%30.15 "HgN/A
Weather by CustomWeather, © 2014

See weather overview